| time (UTC) | temp F | wind direction | speed MPH | gust MPH | rain 1hr in | rain 24hr in | rain mn in | humidity % | barometer mb |
| 20260508233855 | 67 | 109 | 4.0 | 6.0 | 0.00 | 0.00 | 0.00 | 53 | 1022.2 |
| 20260508233354 | 67 | 310 | 0.0 | 0.0 | 0.00 | 0.00 | 0.00 | 57 | 1022.2 |
| 20260508232850 | 67 | 309 | 0.0 | 1.0 | 0.00 | 0.00 | 0.00 | 54 | 1022.4 |
| 20260508232346 | 66 | 297 | 1.0 | 2.0 | 0.00 | 0.00 | 0.00 | 56 | 1022.2 |
| 20260508231845 | 66 | 310 | 0.0 | 1.0 | 0.00 | 0.00 | 0.00 | 55 | 1022.3 |
| 20260508231341 | 66 | 344 | 0.0 | 0.0 | 0.00 | 0.00 | 0.00 | 55 | 1022.3 |
| 20260508230838 | 66 | 304 | 1.0 | 2.0 | 0.00 | 0.00 | 0.00 | 56 | 1022.2 |
| 20260508230334 | 65 | 339 | 1.0 | 1.0 | 0.00 | 0.00 | 0.00 | 56 | 1022.5 |
| 20260508225832 | 65 | 324 | 3.0 | 3.0 | 0.00 | 0.00 | 0.00 | 56 | 1022.3 |
| 20260508225328 | 66 | 300 | 4.0 | 5.0 | 0.00 | 0.00 | 0.00 | 54 | 1022.3 |
| 20260508224826 | 66 | 106 | 1.0 | 2.0 | 0.00 | 0.00 | 0.00 | 55 | 1022.6 |
| 20260508224324 | 65 | 292 | 2.0 | 3.0 | 0.00 | 0.00 | 0.00 | 57 | 1022.3 |
| 20260508223821 | 65 | 314 | 0.0 | 0.0 | 0.00 | 0.00 | 0.00 | 56 | 1022.5 |
| 20260508223318 | 66 | 319 | 0.0 | 0.0 | 0.00 | 0.00 | 0.00 | 55 | 1022.6 |
| 20260508222816 | 66 | 233 | 1.0 | 2.0 | 0.00 | 0.00 | 0.00 | 58 | 1022.6 |
| 20260508222313 | 65 | 292 | 0.0 | 0.0 | 0.00 | 0.00 | 0.00 | 56 | 1022.5 |
| 20260508221809 | 65 | 321 | 1.0 | 2.0 | 0.00 | 0.00 | 0.00 | 58 | 1022.6 |
| 20260508221305 | 65 | 317 | 1.0 | 1.0 | 0.00 | 0.00 | 0.00 | 57 | 1022.7 |
| 20260508220801 | 66 | 298 | 1.0 | 3.0 | 0.00 | 0.00 | 0.00 | 55 | 1022.7 |
| 20260508220258 | 65 | 295 | 0.0 | 0.0 | 0.00 | 0.00 | 0.00 | 57 | 1022.6 |
| 20260508215754 | 64 | 298 | 0.0 | 0.0 | 0.00 | 0.00 | 0.00 | 56 | 1022.5 |
| 20260508215251 | 64 | 290 | 1.0 | 1.0 | 0.00 | 0.00 | 0.00 | 59 | 1022.7 |
| 20260508214748 | 65 | 337 | 1.0 | 1.0 | 0.00 | 0.00 | 0.00 | 56 | 1022.8 |
| 20260508214245 | 65 | 295 | 0.0 | 1.0 | 0.00 | 0.00 | 0.00 | 63 | 1022.8 |
| 20260508213742 | 65 | 303 | 1.0 | 2.0 | 0.00 | 0.00 | 0.00 | 56 | 1022.6 |
| 20260508213238 | 65 | 192 | 3.0 | 6.0 | 0.00 | 0.00 | 0.00 | 56 | 1022.7 |
| 20260508212735 | 64 | 274 | 1.0 | 1.0 | 0.00 | 0.00 | 0.00 | 57 | 1023.0 |
| 20260508212231 | 64 | 78 | 1.0 | 2.0 | 0.00 | 0.00 | 0.00 | 58 | 1022.6 |
| 20260508211727 | 63 | 267 | 1.0 | 1.0 | 0.00 | 0.00 | 0.00 | 57 | 1022.6 |
| 20260508211223 | 63 | 330 | 1.0 | 1.0 | 0.00 | 0.00 | 0.00 | 60 | 1022.8 |
| 20260508210721 | 64 | 317 | 1.0 | 1.0 | 0.00 | 0.00 | 0.00 | 61 | 1022.6 |
| 20260508210218 | 65 | 312 | 1.0 | 2.0 | 0.00 | 0.00 | 0.00 | 56 | 1022.7 |
| 20260508205714 | 64 | 311 | 0.0 | 0.0 | 0.00 | 0.00 | 0.00 | 62 | 1022.8 |
| 20260508205211 | 64 | 297 | 0.0 | 1.0 | 0.00 | 0.00 | 0.00 | 59 | 1022.8 |
| 20260508204707 | 63 | 182 | 2.0 | 3.0 | 0.00 | 0.00 | 0.00 | 57 | 1022.7 |
| 20260508204203 | 63 | 284 | 1.0 | 1.0 | 0.00 | 0.00 | 0.00 | 58 | 1022.6 |
| 20260508203659 | 63 | 160 | 0.0 | 0.0 | 0.00 | 0.00 | 0.00 | 57 | 1022.8 |
| 20260508203156 | 61 | 310 | 0.0 | 0.0 | 0.00 | 0.00 | 0.00 | 61 | 1022.9 |
| 20260508202652 | 61 | 327 | 2.0 | 3.0 | 0.00 | 0.00 | 0.00 | 60 | 1022.8 |
| 20260508202149 | 62 | 306 | 2.0 | 2.0 | 0.00 | 0.00 | 0.00 | 60 | 1022.9 |
| 20260508201646 | 63 | 303 | 1.0 | 2.0 | 0.00 | 0.00 | 0.00 | 61 | 1022.9 |
| 20260508201143 | 62 | 55 | 2.0 | 3.0 | 0.00 | 0.00 | 0.00 | 58 | 1022.8 |
| 20260508200640 | 63 | 315 | 0.0 | 0.0 | 0.00 | 0.00 | 0.00 | 63 | 1022.9 |
| 20260508200136 | 63 | 294 | 0.0 | 1.0 | 0.00 | 0.00 | 0.00 | 61 | 1023.1 |
| 20260508195632 | 62 | 243 | 1.0 | 2.0 | 0.00 | 0.00 | 0.00 | 60 | 1023.1 |
| 20260508195129 | 63 | 309 | 1.0 | 2.0 | 0.00 | 0.00 | 0.00 | 57 | 1023.3 |
| 20260508194626 | 62 | 295 | 0.0 | 1.0 | 0.00 | 0.00 | 0.00 | 58 | 1023.3 |
| 20260508194123 | 62 | 296 | 0.0 | 0.0 | 0.00 | 0.00 | 0.00 | 60 | 1023.2 |
| 20260508193620 | 60 | 282 | 0.0 | 1.0 | 0.00 | 0.00 | 0.00 | 65 | 1023.0 |
| 20260508193116 | 59 | 222 | 1.0 | 1.0 | 0.00 | 0.00 | 0.00 | 63 | 1023.1 |
| 20260508192613 | 60 | 322 | 3.0 | 5.0 | 0.00 | 0.00 | 0.00 | 63 | 1023.0 |
| 20260508192110 | 60 | 301 | 3.0 | 3.0 | 0.00 | 0.00 | 0.00 | 63 | 1023.2 |
| 20260508191607 | 59 | 315 | 0.0 | 0.0 | 0.00 | 0.00 | 0.00 | 65 | 1023.2 |
| 20260508191103 | 60 | 307 | 1.0 | 2.0 | 0.00 | 0.00 | 0.00 | 64 | 1023.4 |
| 20260508190600 | 60 | 300 | 6.0 | 6.0 | 0.00 | 0.00 | 0.00 | 61 | 1023.3 |
| 20260508190057 | 59 | 322 | 1.0 | 2.0 | 0.00 | 0.00 | 0.00 | 64 | 1023.1 |
| 20260508185554 | 59 | 309 | 0.0 | 0.0 | 0.00 | 0.00 | 0.00 | 64 | 1023.3 |
| 20260508185052 | 59 | 303 | 1.0 | 1.0 | 0.00 | 0.00 | 0.00 | 63 | 1023.3 |
| 20260508184549 | 60 | 310 | 0.0 | 1.0 | 0.00 | 0.00 | 0.00 | 66 | 1023.4 |
| 20260508184046 | 60 | 296 | 0.0 | 1.0 | 0.00 | 0.00 | 0.00 | 63 | 1023.5 |
| 20260508183542 | 60 | 293 | 1.0 | 1.0 | 0.00 | 0.00 | 0.00 | 66 | 1023.2 |
| 20260508183038 | 59 | 310 | 1.0 | 2.0 | 0.00 | 0.00 | 0.00 | 68 | 1023.3 |
| 20260508182535 | 60 | 312 | 0.0 | 1.0 | 0.00 | 0.00 | 0.00 | 65 | 1023.3 |
| 20260508182031 | 60 | 292 | 1.0 | 1.0 | 0.00 | 0.00 | 0.00 | 65 | 1023.3 |
| 20260508181527 | 58 | 312 | 1.0 | 1.0 | 0.00 | 0.00 | 0.00 | 67 | 1023.1 |
| 20260508181025 | 58 | 318 | 0.0 | 1.0 | 0.00 | 0.00 | 0.00 | 70 | 1023.3 |
| 20260508180521 | 57 | 317 | 2.0 | 2.0 | 0.00 | 0.00 | 0.00 | 70 | 1023.0 |
| 20260508180017 | 57 | 315 | 3.0 | 3.0 | 0.00 | 0.00 | 0.00 | 70 | 1023.4 |
| 20260508175514 | 58 | 296 | 4.0 | 5.0 | 0.00 | 0.00 | 0.00 | 70 | 1023.1 |
| 20260508175011 | 60 | 295 | 0.0 | 1.0 | 0.00 | 0.00 | 0.00 | 68 | 1023.0 |
| 20260508174509 | 59 | 302 | 1.0 | 1.0 | 0.00 | 0.00 | 0.00 | 69 | 1022.9 |
| 20260508174006 | 59 | 120 | 2.0 | 3.0 | 0.00 | 0.00 | 0.00 | 69 | 1023.2 |
| 20260508173503 | 59 | 276 | 0.0 | 1.0 | 0.00 | 0.00 | 0.00 | 70 | 1022.9 |
| 20260508172959 | 59 | 297 | 0.0 | 0.0 | 0.00 | 0.00 | 0.00 | 71 | 1022.9 |
| 20260508172456 | 58 | 301 | 0.0 | 0.0 | 0.00 | 0.00 | 0.00 | 72 | 1023.0 |
| 20260508171952 | 57 | 281 | 1.0 | 1.0 | 0.00 | 0.00 | 0.00 | 73 | 1022.7 |
| 20260508171449 | 57 | 315 | 0.0 | 0.0 | 0.00 | 0.00 | 0.00 | 74 | 1022.7 |
| 20260508170945 | 58 | 291 | 0.0 | 0.0 | 0.00 | 0.00 | 0.00 | 71 | 1022.6 |
| 20260508170443 | 57 | 311 | 1.0 | 1.0 | 0.00 | 0.00 | 0.00 | 73 | 1022.7 |
| 20260508165939 | 56 | 297 | 0.0 | 1.0 | 0.00 | 0.00 | 0.00 | 75 | 1022.6 |
| 20260508165438 | 55 | 299 | 1.0 | 1.0 | 0.00 | 0.00 | 0.00 | 76 | 1022.6 |
| 20260508164933 | 55 | 306 | 1.0 | 1.0 | 0.00 | 0.00 | 0.00 | 75 | 1022.2 |
| 20260508164430 | 55 | 312 | 0.0 | 0.0 | 0.00 | 0.00 | 0.00 | 76 | 1022.1 |
| 20260508163927 | 54 | 309 | 2.0 | 2.0 | 0.00 | 0.00 | 0.00 | 75 | 1022.0 |
| 20260508163425 | 56 | 296 | 0.0 | 1.0 | 0.00 | 0.00 | 0.00 | 75 | 1022.2 |
| 20260508162920 | 56 | 302 | 0.0 | 1.0 | 0.00 | 0.00 | 0.00 | 75 | 1022.1 |
| 20260508162418 | 57 | 286 | 1.0 | 1.0 | 0.00 | 0.00 | 0.00 | 71 | 1022.3 |
| 20260508161915 | 57 | 300 | 0.0 | 0.0 | 0.00 | 0.00 | 0.00 | 75 | 1022.2 |
| 20260508161412 | 56 | 316 | 0.0 | 0.0 | 0.00 | 0.00 | 0.00 | 76 | 1022.2 |
| 20260508160909 | 55 | 308 | 0.0 | 1.0 | 0.00 | 0.00 | 0.00 | 75 | 1022.0 |
| 20260508160408 | 55 | 290 | 0.0 | 0.0 | 0.00 | 0.00 | 0.00 | 77 | 1022.1 |
| 20260508155903 | 55 | 67 | 2.0 | 2.0 | 0.00 | 0.00 | 0.00 | 75 | 1022.1 |
| 20260508155401 | 54 | 328 | 0.0 | 1.0 | 0.00 | 0.00 | 0.00 | 76 | 1021.8 |
| 20260508154858 | 53 | 294 | 0.0 | 1.0 | 0.00 | 0.00 | 0.00 | 78 | 1021.8 |
| 20260508154355 | 54 | 42 | 0.0 | 0.0 | 0.00 | 0.00 | 0.00 | 77 | 1022.0 |
| 20260508153852 | 53 | 281 | 2.0 | 2.0 | 0.00 | 0.00 | 0.00 | 78 | 1021.9 |
| 20260508153349 | 53 | 295 | 0.0 | 0.0 | 0.00 | 0.00 | 0.00 | 79 | 1021.8 |
| 20260508152845 | 53 | 80 | 0.0 | 0.0 | 0.00 | 0.00 | 0.00 | 79 | 1022.0 |
| 20260508152342 | 54 | 81 | 1.0 | 1.0 | 0.00 | 0.00 | 0.00 | 78 | 1022.3 |
| 20260508151838 | 54 | 55 | 0.0 | 0.0 | 0.00 | 0.00 | 0.00 | 80 | 1022.0 |
| 20260508151335 | 53 | 50 | 0.0 | 0.0 | 0.00 | 0.00 | 0.00 | 80 | 1022.4 |
| 20260508150831 | 53 | 49 | 0.0 | 0.0 | 0.00 | 0.00 | 0.00 | 81 | 1022.2 |
| 20260508150328 | 53 | 49 | 0.0 | 1.0 | 0.00 | 0.00 | 0.00 | 81 | 1022.2 |
| 20260508145824 | 53 | 49 | 0.0 | 0.0 | 0.00 | 0.00 | 0.00 | 80 | 1022.3 |
| 20260508145321 | 53 | 50 | 0.0 | 1.0 | 0.00 | 0.00 | 0.00 | 81 | 1022.1 |
| 20260508144818 | 53 | 51 | 0.0 | 0.0 | 0.00 | 0.00 | 0.00 | 81 | 1022.2 |
| 20260508144316 | 53 | 51 | 0.0 | 0.0 | 0.00 | 0.00 | 0.00 | 81 | 1022.3 |
| 20260508143813 | 53 | 53 | 1.0 | 1.0 | 0.00 | 0.00 | 0.00 | 79 | 1022.3 |
| 20260508143310 | 53 | 321 | 0.0 | 1.0 | 0.00 | 0.00 | 0.00 | 81 | 1022.2 |
| 20260508142807 | 53 | 318 | 0.0 | 1.0 | 0.00 | 0.00 | 0.00 | 82 | 1022.3 |
| 20260508142306 | 52 | 320 | 0.0 | 1.0 | 0.00 | 0.00 | 0.00 | 82 | 1022.2 |
| 20260508141759 | 53 | 297 | 0.0 | 1.0 | 0.00 | 0.00 | 0.00 | 81 | 1022.4 |
| 20260508141257 | 52 | 299 | 0.0 | 0.0 | 0.00 | 0.00 | 0.00 | 84 | 1021.6 |
| 20260508140754 | 50 | 299 | 0.0 | 0.0 | 0.00 | 0.00 | 0.00 | 87 | 1022.0 |
| 20260508140251 | 49 | 299 | 0.0 | 0.0 | 0.00 | 0.00 | 0.00 | 89 | 1021.5 |
| 20260508135747 | 48 | 299 | 0.0 | 1.0 | 0.00 | 0.00 | 0.00 | 91 | 1021.8 |
| 20260508135243 | 48 | 299 | 0.0 | 0.0 | 0.00 | 0.00 | 0.00 | 91 | 1021.3 |
| 20260508134739 | 47 | 299 | 0.0 | 0.0 | 0.00 | 0.00 | 0.00 | 92 | 1021.4 |
| 20260508134237 | 47 | 299 | 0.0 | 0.0 | 0.00 | 0.00 | 0.00 | 92 | 1021.1 |
| 20260508133733 | 47 | 300 | 0.0 | 0.0 | 0.00 | 0.00 | 0.00 | 92 | 1021.2 |
| 20260508133231 | 47 | 300 | 0.0 | 0.0 | 0.00 | 0.00 | 0.00 | 92 | 1021.0 |
| 20260508132728 | 47 | 300 | 0.0 | 0.0 | 0.00 | 0.00 | 0.00 | 92 | 1020.8 |
| 20260508132226 | 47 | 300 | 0.0 | 0.0 | 0.00 | 0.00 | 0.00 | 92 | 1020.9 |
| 20260508131721 | 47 | 300 | 0.0 | 0.0 | 0.00 | 0.00 | 0.00 | 92 | 1020.8 |
| 20260508131218 | 47 | 300 | 0.0 | 0.0 | 0.00 | 0.00 | 0.00 | 91 | 1020.5 |
| 20260508130714 | 48 | 300 | 0.0 | 0.0 | 0.00 | 0.00 | 0.00 | 90 | 1020.3 |
| 20260508130212 | 48 | 300 | 0.0 | 0.0 | 0.00 | 0.00 | 0.00 | 89 | 1020.3 |
| 20260508125707 | 48 | 300 | 0.0 | 0.0 | 0.00 | 0.00 | 0.00 | 88 | 1020.1 |
| 20260508125203 | 49 | 300 | 0.0 | 0.0 | 0.00 | 0.00 | 0.00 | 87 | 1020.0 |
| 20260508124702 | 49 | 300 | 0.0 | 0.0 | 0.00 | 0.00 | 0.00 | 87 | 1020.1 |
| 20260508124158 | 50 | 300 | 0.0 | 0.0 | 0.00 | 0.00 | 0.00 | 86 | 1020.2 |
| 20260508123657 | 50 | 300 | 0.0 | 0.0 | 0.00 | 0.00 | 0.00 | 86 | 1019.9 |
| 20260508123155 | 50 | 299 | 0.0 | 0.0 | 0.00 | 0.00 | 0.00 | 86 | 1020.0 |
| 20260508122650 | 50 | 300 | 0.0 | 0.0 | 0.00 | 0.00 | 0.00 | 86 | 1020.0 |
| 20260508122147 | 50 | 300 | 0.0 | 0.0 | 0.00 | 0.00 | 0.00 | 85 | 1020.0 |
| 20260508121645 | 50 | 300 | 0.0 | 0.0 | 0.00 | 0.00 | 0.00 | 86 | 1020.0 |
| 20260508121143 | 50 | 300 | 0.0 | 0.0 | 0.00 | 0.00 | 0.00 | 86 | 1020.1 |
| 20260508120640 | 50 | 300 | 0.0 | 0.0 | 0.00 | 0.00 | 0.00 | 87 | 1019.7 |
| 20260508120139 | 50 | 300 | 0.0 | 0.0 | 0.00 | 0.00 | 0.00 | 88 | 1019.9 |
| 20260508115636 | 50 | 300 | 0.0 | 0.0 | 0.00 | 0.00 | 0.00 | 88 | 1019.7 |
| 20260508115132 | 50 | 300 | 0.0 | 0.0 | 0.00 | 0.00 | 0.00 | 88 | 1019.6 |
| 20260508114630 | 50 | 300 | 0.0 | 0.0 | 0.00 | 0.00 | 0.00 | 89 | 1019.6 |
| 20260508114125 | 50 | 300 | 0.0 | 0.0 | 0.00 | 0.00 | 0.00 | 89 | 1019.4 |
| 20260508113623 | 50 | 300 | 0.0 | 0.0 | 0.00 | 0.00 | 0.00 | 88 | 1019.5 |
| 20260508113121 | 50 | 300 | 0.0 | 0.0 | 0.00 | 0.00 | 0.00 | 89 | 1019.6 |
| 20260508112617 | 50 | 300 | 0.0 | 0.0 | 0.00 | 0.00 | 0.00 | 89 | 1019.5 |
| 20260508112114 | 50 | 300 | 0.0 | 0.0 | 0.00 | 0.00 | 0.00 | 89 | 1019.2 |
| 20260508111611 | 50 | 300 | 0.0 | 0.0 | 0.00 | 0.00 | 0.00 | 89 | 1019.4 |
| 20260508111108 | 50 | 300 | 0.0 | 0.0 | 0.00 | 0.00 | 0.00 | 90 | 1019.0 |
| 20260508110606 | 50 | 300 | 0.0 | 0.0 | 0.00 | 0.00 | 0.00 | 91 | 1019.1 |
| 20260508105557 | 49 | 304 | 0.0 | 0.0 | 0.00 | 0.00 | 0.00 | 93 | 1019.1 |
| 20260508105054 | 49 | 304 | 0.0 | 0.0 | 0.00 | 0.00 | 0.00 | 93 | 1019.0 |
| 20260508104552 | 49 | 304 | 0.0 | 0.0 | 0.00 | 0.00 | 0.00 | 92 | 1018.8 |
| 20260508104048 | 49 | 304 | 0.0 | 0.0 | 0.00 | 0.00 | 0.00 | 92 | 1018.8 |
| 20260508103545 | 49 | 304 | 0.0 | 0.0 | 0.00 | 0.00 | 0.00 | 92 | 1018.9 |
| 20260508103043 | 49 | 304 | 0.0 | 0.0 | 0.00 | 0.00 | 0.00 | 92 | 1018.7 |
| 20260508102540 | 49 | 304 | 0.0 | 0.0 | 0.00 | 0.00 | 0.00 | 93 | 1018.8 |
| 20260508102038 | 49 | 304 | 0.0 | 0.0 | 0.00 | 0.00 | 0.00 | 93 | 1018.7 |
| 20260508101535 | 49 | 304 | 0.0 | 0.0 | 0.00 | 0.00 | 0.00 | 93 | 1018.8 |
| 20260508101032 | 49 | 304 | 0.0 | 0.0 | 0.00 | 0.00 | 0.00 | 92 | 1018.7 |
| 20260508100530 | 49 | 304 | 0.0 | 0.0 | 0.00 | 0.00 | 0.00 | 92 | 1018.5 |
| 20260508100027 | 49 | 304 | 0.0 | 0.0 | 0.00 | 0.00 | 0.00 | 91 | 1018.6 |
| 20260508095524 | 49 | 304 | 0.0 | 0.0 | 0.00 | 0.00 | 0.00 | 91 | 1018.6 |
| 20260508095021 | 50 | 304 | 0.0 | 0.0 | 0.00 | 0.00 | 0.00 | 91 | 1018.3 |
| 20260508094518 | 50 | 304 | 0.0 | 0.0 | 0.00 | 0.00 | 0.00 | 91 | 1018.3 |
| 20260508094015 | 50 | 304 | 0.0 | 0.0 | 0.00 | 0.00 | 0.00 | 91 | 1018.4 |
| 20260508093512 | 50 | 304 | 0.0 | 0.0 | 0.00 | 0.00 | 0.00 | 91 | 1018.4 |
| 20260508093010 | 49 | 304 | 0.0 | 0.0 | 0.00 | 0.00 | 0.00 | 91 | 1018.4 |
| 20260508092507 | 49 | 304 | 0.0 | 0.0 | 0.00 | 0.00 | 0.00 | 91 | 1018.5 |
| 20260508092006 | 50 | 304 | 0.0 | 0.0 | 0.00 | 0.00 | 0.00 | 90 | 1018.3 |
| 20260508091502 | 50 | 304 | 0.0 | 0.0 | 0.00 | 0.00 | 0.00 | 90 | 1018.4 |
| 20260508090959 | 50 | 304 | 0.0 | 0.0 | 0.00 | 0.00 | 0.00 | 90 | 1018.4 |
| 20260508090457 | 50 | 304 | 0.0 | 0.0 | 0.00 | 0.00 | 0.00 | 90 | 1018.2 |
| 20260508085953 | 50 | 304 | 0.0 | 0.0 | 0.00 | 0.00 | 0.00 | 90 | 1018.1 |
| 20260508085450 | 50 | 304 | 0.0 | 0.0 | 0.00 | 0.00 | 0.00 | 90 | 1018.2 |
| 20260508084947 | 50 | 304 | 0.0 | 0.0 | 0.00 | 0.00 | 0.00 | 89 | 1018.2 |
| 20260508084444 | 50 | 304 | 0.0 | 0.0 | 0.00 | 0.00 | 0.00 | 89 | 1018.2 |
| 20260508083942 | 50 | 304 | 0.0 | 0.0 | 0.00 | 0.00 | 0.00 | 89 | 1017.9 |
| 20260508083438 | 50 | 304 | 0.0 | 0.0 | 0.00 | 0.00 | 0.00 | 88 | 1018.0 |
| 20260508082938 | 50 | 304 | 0.0 | 0.0 | 0.00 | 0.00 | 0.00 | 89 | 1018.0 |
| 20260508082436 | 50 | 304 | 0.0 | 0.0 | 0.00 | 0.00 | 0.00 | 89 | 1018.2 |
| 20260508081934 | 50 | 304 | 0.0 | 0.0 | 0.00 | 0.00 | 0.00 | 89 | 1017.8 |
| 20260508081430 | 50 | 304 | 0.0 | 0.0 | 0.00 | 0.00 | 0.00 | 89 | 1017.9 |
| 20260508080926 | 50 | 304 | 0.0 | 0.0 | 0.00 | 0.00 | 0.00 | 89 | 1017.9 |
| 20260508080425 | 50 | 304 | 0.0 | 0.0 | 0.00 | 0.00 | 0.00 | 89 | 1018.1 |
| 20260508075921 | 50 | 304 | 0.0 | 0.0 | 0.00 | 0.00 | 0.00 | 88 | 1018.0 |
| 20260508075418 | 50 | 304 | 0.0 | 0.0 | 0.00 | 0.00 | 0.00 | 87 | 1017.8 |
| 20260508074916 | 51 | 304 | 0.0 | 0.0 | 0.00 | 0.00 | 0.00 | 87 | 1017.9 |
| 20260508074413 | 51 | 304 | 0.0 | 0.0 | 0.00 | 0.00 | 0.00 | 86 | 1017.9 |
| 20260508073910 | 51 | 304 | 0.0 | 0.0 | 0.00 | 0.00 | 0.00 | 86 | 1018.0 |
| 20260508073408 | 51 | 304 | 0.0 | 0.0 | 0.00 | 0.00 | 0.00 | 85 | 1017.8 |
| 20260508072904 | 51 | 304 | 0.0 | 0.0 | 0.00 | 0.00 | 0.00 | 84 | 1017.7 |
| 20260508072401 | 52 | 304 | 0.0 | 0.0 | 0.00 | 0.00 | 0.00 | 82 | 1017.8 |
| 20260508071858 | 52 | 304 | 0.0 | 0.0 | 0.00 | 0.00 | 0.00 | 82 | 1017.7 |
| 20260508071356 | 53 | 304 | 0.0 | 0.0 | 0.00 | 0.00 | 0.00 | 82 | 1017.7 |
| 20260508070853 | 53 | 304 | 0.0 | 0.0 | 0.00 | 0.00 | 0.00 | 81 | 1017.8 |
| 20260508070351 | 53 | 304 | 0.0 | 0.0 | 0.00 | 0.00 | 0.00 | 82 | 1017.8 |
| 20260508065849 | 53 | 304 | 0.0 | 0.0 | 0.00 | 0.00 | 0.00 | 81 | 1017.6 |
| 20260508065347 | 53 | 304 | 0.0 | 0.0 | 0.00 | 0.00 | 0.00 | 81 | 1017.8 |
| 20260508064845 | 53 | 304 | 0.0 | 0.0 | 0.00 | 0.00 | 0.00 | 81 | 1017.8 |
| 20260508064342 | 53 | 304 | 0.0 | 0.0 | 0.00 | 0.00 | 0.00 | 82 | 1017.8 |
| 20260508063839 | 53 | 304 | 0.0 | 0.0 | 0.00 | 0.00 | 0.00 | 81 | 1017.7 |
| 20260508063337 | 53 | 304 | 0.0 | 0.0 | 0.00 | 0.00 | 0.00 | 82 | 1017.8 |
| 20260508062834 | 53 | 304 | 0.0 | 0.0 | 0.00 | 0.00 | 0.00 | 82 | 1017.9 |
| 20260508062331 | 53 | 304 | 0.0 | 0.0 | 0.00 | 0.00 | 0.00 | 82 | 1017.8 |
| 20260508061828 | 53 | 304 | 0.0 | 0.0 | 0.00 | 0.00 | 0.00 | 82 | 1017.6 |
| 20260508061326 | 53 | 304 | 0.0 | 0.0 | 0.00 | 0.00 | 0.00 | 82 | 1017.7 |
| 20260508060822 | 53 | 304 | 0.0 | 0.0 | 0.00 | 0.00 | 0.00 | 81 | 1017.6 |
| 20260508060320 | 53 | 304 | 0.0 | 0.0 | 0.00 | 0.00 | 0.00 | 80 | 1017.8 |
| 20260508055815 | 53 | 304 | 0.0 | 0.0 | 0.00 | 0.00 | 0.00 | 81 | 1017.6 |
| 20260508055313 | 53 | 304 | 0.0 | 0.0 | 0.00 | 0.00 | 0.00 | 80 | 1017.6 |
| 20260508054809 | 53 | 305 | 0.0 | 0.0 | 0.00 | 0.00 | 0.00 | 80 | 1017.6 |
| 20260508054307 | 54 | 305 | 0.0 | 0.0 | 0.00 | 0.00 | 0.00 | 79 | 1017.6 |
| 20260508053803 | 54 | 304 | 0.0 | 0.0 | 0.00 | 0.00 | 0.00 | 78 | 1017.5 |
| 20260508053301 | 54 | 304 | 0.0 | 0.0 | 0.00 | 0.00 | 0.00 | 78 | 1017.6 |
| 20260508052758 | 54 | 305 | 0.0 | 0.0 | 0.00 | 0.00 | 0.00 | 77 | 1017.6 |
| 20260508052255 | 55 | 305 | 0.0 | 0.0 | 0.00 | 0.00 | 0.00 | 77 | 1017.5 |
| 20260508051751 | 55 | 305 | 0.0 | 0.0 | 0.00 | 0.00 | 0.00 | 76 | 1017.6 |
| 20260508051246 | 55 | 305 | 0.0 | 0.0 | 0.00 | 0.00 | 0.00 | 76 | 1017.6 |
| 20260508050743 | 55 | 305 | 0.0 | 0.0 | 0.00 | 0.00 | 0.00 | 75 | 1017.3 |
| 20260508050240 | 56 | 305 | 0.0 | 0.0 | 0.00 | 0.00 | 0.00 | 75 | 1017.4 |
| 20260508045735 | 56 | 305 | 0.0 | 0.0 | 0.00 | 0.00 | 0.00 | 72 | 1017.6 |
| 20260508045234 | 57 | 305 | 0.0 | 0.0 | 0.00 | 0.00 | 0.00 | 73 | 1017.5 |
| 20260508044731 | 56 | 305 | 0.0 | 0.0 | 0.00 | 0.00 | 0.00 | 74 | 1017.6 |
| 20260508044228 | 56 | 305 | 0.0 | 0.0 | 0.00 | 0.00 | 0.00 | 74 | 1017.5 |
| 20260508043724 | 56 | 305 | 0.0 | 0.0 | 0.00 | 0.00 | 0.00 | 74 | 1017.3 |
| 20260508043221 | 57 | 305 | 0.0 | 0.0 | 0.00 | 0.00 | 0.00 | 73 | 1017.5 |
| 20260508042718 | 57 | 305 | 0.0 | 0.0 | 0.00 | 0.00 | 0.00 | 70 | 1017.7 |
| 20260508042215 | 57 | 305 | 0.0 | 0.0 | 0.00 | 0.00 | 0.00 | 69 | 1017.3 |
| 20260508041711 | 57 | 305 | 0.0 | 0.0 | 0.00 | 0.00 | 0.00 | 68 | 1017.3 |
| 20260508041209 | 58 | 305 | 0.0 | 0.0 | 0.00 | 0.00 | 0.00 | 68 | 1017.4 |
| 20260508040705 | 58 | 305 | 0.0 | 0.0 | 0.00 | 0.00 | 0.00 | 67 | 1017.3 |
| 20260508040202 | 59 | 305 | 0.0 | 0.0 | 0.00 | 0.00 | 0.00 | 66 | 1017.2 |
| 20260508035659 | 59 | 305 | 0.0 | 0.0 | 0.00 | 0.00 | 0.00 | 65 | 1017.4 |
| 20260508035157 | 59 | 305 | 0.0 | 0.0 | 0.00 | 0.00 | 0.00 | 64 | 1017.3 |
| 20260508034653 | 60 | 305 | 0.0 | 0.0 | 0.00 | 0.00 | 0.00 | 63 | 1017.3 |
| 20260508034150 | 60 | 305 | 0.0 | 0.0 | 0.00 | 0.00 | 0.00 | 63 | 1017.2 |
| 20260508033648 | 61 | 305 | 0.0 | 0.0 | 0.00 | 0.00 | 0.00 | 59 | 1017.1 |
| 20260508033146 | 62 | 305 | 0.0 | 0.0 | 0.00 | 0.00 | 0.00 | 60 | 1016.9 |
| 20260508032643 | 63 | 305 | 0.0 | 0.0 | 0.00 | 0.00 | 0.00 | 59 | 1016.8 |
| 20260508032140 | 63 | 305 | 0.0 | 0.0 | 0.00 | 0.00 | 0.00 | 56 | 1017.0 |
| 20260508031637 | 63 | 305 | 0.0 | 0.0 | 0.00 | 0.00 | 0.00 | 56 | 1016.8 |
| 20260508031133 | 64 | 305 | 0.0 | 0.0 | 0.00 | 0.00 | 0.00 | 55 | 1016.7 |
| 20260508030629 | 65 | 305 | 0.0 | 0.0 | 0.00 | 0.00 | 0.00 | 53 | 1016.5 |
| 20260508030127 | 65 | 305 | 0.0 | 0.0 | 0.00 | 0.00 | 0.00 | 54 | 1016.8 |
| 20260508025623 | 66 | 305 | 0.0 | 0.0 | 0.00 | 0.00 | 0.00 | 52 | 1016.8 |
| 20260508025121 | 67 | 305 | 0.0 | 0.0 | 0.00 | 0.00 | 0.00 | 49 | 1016.9 |
| 20260508024617 | 67 | 305 | 0.0 | 0.0 | 0.00 | 0.00 | 0.00 | 47 | 1016.8 |
| 20260508024114 | 67 | 305 | 0.0 | 0.0 | 0.00 | 0.00 | 0.00 | 48 | 1016.9 |
| 20260508023610 | 68 | 305 | 0.0 | 0.0 | 0.00 | 0.00 | 0.00 | 48 | 1016.9 |
| 20260508023108 | 68 | 305 | 0.0 | 0.0 | 0.00 | 0.00 | 0.00 | 50 | 1017.0 |
| 20260508022603 | 69 | 305 | 0.0 | 0.0 | 0.00 | 0.00 | 0.00 | 47 | 1017.0 |
| 20260508022101 | 69 | 305 | 0.0 | 0.0 | 0.00 | 0.00 | 0.00 | 47 | 1017.1 |
| 20260508021556 | 70 | 305 | 0.0 | 0.0 | 0.00 | 0.00 | 0.00 | 47 | 1017.1 |
| 20260508021052 | 72 | 305 | 1.0 | 1.0 | 0.00 | 0.00 | 0.00 | 45 | 1017.4 |
| 20260508020550 | 73 | 305 | 0.0 | 0.0 | 0.00 | 0.00 | 0.00 | 41 | 1017.3 |
| 20260508020048 | 74 | 305 | 0.0 | 0.0 | 0.00 | 0.00 | 0.00 | 42 | 1017.6 |
| 20260508015545 | 73 | 313 | 0.0 | 0.0 | 0.00 | 0.00 | 0.00 | 42 | 1017.1 |
| 20260508015042 | 72 | 328 | 0.0 | 0.0 | 0.00 | 0.00 | 0.00 | 42 | 1017.1 |
| 20260508014538 | 71 | 331 | 0.0 | 0.0 | 0.00 | 0.00 | 0.00 | 42 | 1017.2 |
| 20260508014034 | 71 | 302 | 1.0 | 2.0 | 0.00 | 0.00 | 0.00 | 41 | 1017.3 |
| 20260508013530 | 70 | 302 | 0.0 | 1.0 | 0.00 | 0.00 | 0.00 | 41 | 1017.3 |
| 20260508013028 | 71 | 10 | 3.0 | 3.0 | 0.00 | 0.00 | 0.00 | 41 | 1017.0 |
| 20260508012525 | 71 | 314 | 0.0 | 1.0 | 0.00 | 0.00 | 0.00 | 43 | 1017.0 |
| 20260508012022 | 70 | 307 | 1.0 | 1.0 | 0.00 | 0.00 | 0.00 | 45 | 1017.1 |
| 20260508011521 | 70 | 302 | 0.0 | 1.0 | 0.00 | 0.00 | 0.00 | 42 | 1017.1 |
| 20260508011018 | 71 | 306 | 1.0 | 1.0 | 0.00 | 0.00 | 0.00 | 44 | 1017.3 |
| 20260508010514 | 70 | 314 | 1.0 | 1.0 | 0.00 | 0.00 | 0.00 | 43 | 1017.2 |
| 20260508010012 | 70 | 303 | 2.0 | 2.0 | 0.00 | 0.00 | 0.00 | 43 | 1017.2 |
| 20260508005508 | 71 | 315 | 0.0 | 1.0 | 0.00 | 0.00 | 0.00 | 43 | 1017.5 |
| 20260508005005 | 71 | 304 | 0.0 | 0.0 | 0.00 | 0.00 | 0.00 | 42 | 1017.1 |
| 20260508004501 | 71 | 308 | 2.0 | 2.0 | 0.00 | 0.00 | 0.00 | 43 | 1017.4 |
| 20260508003958 | 70 | 306 | 1.0 | 2.0 | 0.00 | 0.00 | 0.00 | 44 | 1017.5 |
| 20260508003454 | 70 | 297 | 0.0 | 1.0 | 0.00 | 0.00 | 0.00 | 42 | 1017.3 |
| 20260508002952 | 70 | 297 | 1.0 | 1.0 | 0.00 | 0.00 | 0.00 | 42 | 1017.5 |
| 20260508002448 | 70 | 302 | 0.0 | 1.0 | 0.00 | 0.00 | 0.00 | 43 | 1017.3 |
| 20260508001944 | 70 | 288 | 0.0 | 1.0 | 0.00 | 0.00 | 0.00 | 39 | 1017.4 |
| 20260508001441 | 70 | 321 | 0.0 | 0.0 | 0.00 | 0.00 | 0.00 | 37 | 1017.5 |
| 20260508000937 | 70 | 322 | 0.0 | 1.0 | 0.00 | 0.00 | 0.00 | 36 | 1017.5 |
| 20260508000434 | 71 | 298 | 3.0 | 3.0 | 0.00 | 0.00 | 0.00 | 36 | 1017.6 |
| 20260507235930 | 70 | 300 | 0.0 | 1.0 | 0.00 | 0.00 | 0.00 | 37 | 1017.6 |
| 20260507235427 | 70 | 290 | 1.0 | 1.0 | 0.00 | 0.00 | 0.00 | 35 | 1017.7 |
| 20260507234924 | 69 | 294 | 0.0 | 0.0 | 0.00 | 0.00 | 0.00 | 37 | 1017.8 |
| 20260507234421 | 69 | 304 | 1.0 | 3.0 | 0.00 | 0.00 | 0.00 | 36 | 1017.8 |